• Processing (Info)

  • MPEC 2020-F03 : 2020 EP

    The following Minor Planet Electronic Circular may be linked-to from your own Web pages, but must not otherwise be redistributed electronically.

    A form allowing access to any MPEC is at the bottom of this page.


    Read MPEC 2020-F02 Read MPEC 2020-F04


    M.P.E.C. 2020-F03                                Issued 2020 March 16, 14:57 UT
    
         The Minor Planet Electronic Circulars contain information on unusual
             minor planets and routine data on comets.  They are published
        on behalf of Division F of the International Astronomical Union by the
              Minor Planet Center, Smithsonian Astrophysical Observatory,
                              Cambridge, MA 02138, U.S.A.
    
                 Prepared using the Tamkin Foundation Computer Network
    
                                  MPC@CFA.HARVARD.EDU
                URL https://www.minorplanetcenter.net/    ISSN 1523-6714
    
                                     2020 EP                                 
    
    
    Observations:
         K20E00P* C2020 03 02.44459 16 41 17.16 +37 47 26.4          20.6 GVEF003G96
         K20E00P  C2020 03 02.45113 16 41 16.81 +37 47 27.4          20.8 GVEF003G96
         K20E00P  C2020 03 02.45767 16 41 16.60 +37 47 28.7          20.7 GVEF003G96
         K20E00P  C2020 03 02.46420 16 41 16.30 +37 47 29.6          20.2 GVEF003G96
         K20E00P  C2020 03 02.49729 16 41 14.79 +37 47 35.5          19.9 GVEF003I52
         K20E00P  C2020 03 02.50120 16 41 14.64 +37 47 36.4          20.2 GVEF003I52
         K20E00P  C2020 03 02.50440 16 41 14.47 +37 47 36.3          19.8 GVEF003I52
         K20E00P  C2020 03 02.50901 16 41 14.28 +37 47 37.2          20.6 GVEF003I52
         K20E00P KC2020 03 03.02482216 40 51.59 +37 48 59.5          20.4 GVEF003J95
         K20E00P KC2020 03 03.04062216 40 50.89 +37 49 01.8          20.5 GVEF003J95
         K20E00P KC2020 03 03.42447 16 40 33.40 +37 50 07.5          20.3 RqEF003H36
         K20E00P KC2020 03 03.43358 16 40 32.97 +37 50 09.2          19.7 RqEF003H36
         K20E00P KC2020 03 03.44270 16 40 32.60 +37 50 10.5          20.2 RqEF003H36
         K20E00P KC2020 03 04.15106916 39 59.21 +37 52 07.7          20.0 GVEF003C95
         K20E00P KC2020 03 04.16664716 39 58.46 +37 52 10.4          20.5 GVEF003C95
         K20E00P KC2020 03 04.18237716 39 57.70 +37 52 13.4          20.2 GVEF003C95
         K20E00P KC2020 03 04.19780916 39 56.88 +37 52 15.6          20.3 GVEF003C95
         K20E00P KC2020 03 04.39575 16 39 47.40 +37 52 49.0          19.8 GVEF003H36
         K20E00P KC2020 03 04.40786 16 39 46.90 +37 52 51.7          20.1 GVEF003H36
         K20E00P  C2020 03 04.41806 16 39 46.39 +37 52 53.1          21.1 GVEF003V06
         K20E00P KC2020 03 04.42049 16 39 46.12 +37 52 54.6          20.4 GVEF003H36
         K20E00P  C2020 03 04.42285 16 39 46.16 +37 52 54.0          21.1 GVEF003V06
         K20E00P  C2020 03 04.42673 16 39 45.95 +37 52 54.9                VEF003V06
         K20E00P  C2020 03 04.43059 16 39 45.78 +37 52 55.5                VEF003V06
         K20E00P !C2020 03 04.43537 16 39 45.38 +37 52 55.4          20.5 RtEF003673
         K20E00P !C2020 03 04.45733 16 39 44.37 +37 52 59.8                tEF003673
         K20E00P  C2020 03 05.45302 16 38 54.29 +37 55 46.7                VEF003I52
         K20E00P  C2020 03 05.47218 16 38 53.34 +37 55 49.8          20.8 GVEF003I52
         K20E00P  C2020 03 05.48384 16 38 52.70 +37 55 52.1          20.7 GVEF003I52
         K20E00P |C2020 03 05.50515 16 38 51.51 +37 55 55.0                VEF003H06
         K20E00P |C2020 03 05.50833 16 38 51.33 +37 55 55.6                VEF003H06
         K20E00P |C2020 03 05.51150 16 38 51.13 +37 55 56.0          20.0 GVEF003H06
         K20E00P  C2020 03 06.11328 16 38 19.63 +37 57 36.4          20.8 R EF003511
         K20E00P  C2020 03 06.11540 16 38 19.47 +37 57 36.9          20.8 R EF003511
         K20E00P  C2020 03 06.12175 16 38 19.13 +37 57 38.1                 EF003511
         K20E00P  C2020 03 06.13234 16 38 18.55 +37 57 40.2                 EF003511
         K20E00P  C2020 03 06.13585 16 38 18.38 +37 57 40.3                 EF003511
         K20E00P  C2020 03 06.47380 16 38 00.05 +37 58 38.3          20.2 GVEF003G96
         K20E00P  C2020 03 06.48021 16 37 59.72 +37 58 39.5          20.3 GVEF003G96
         K20E00P  C2020 03 06.48282 16 37 59.60 +37 58 39.9          19.9 GVEF003I52
         K20E00P  C2020 03 06.48779 16 37 59.29 +37 58 41.3          20.3 GVEF003I52
         K20E00P  C2020 03 06.49035 16 37 59.14 +37 58 41.3          20.5 GVEF003G96
         K20E00P  C2020 03 06.49275 16 37 59.00 +37 58 41.9          20.3 GVEF003I52
         K20E00P  C2020 03 06.49649 16 37 58.78 +37 58 42.5          20.6 GVEF003I52
         K20E00P  C2020 03 06.49676 16 37 58.77 +37 58 42.3          20.6 GVEF003G96
         K20E00P KC2020 03 07.06798916 37 27.19 +38 00 16.2          19.7 GVEF003J95
         K20E00P KC2020 03 07.10861716 37 24.90 +38 00 23.9          20.0 GVEF003J95
         K20E00P bC2020 03 08.02637416 36 31.84 +38 02 57.3          20.8 GVEF003L01
         K20E00P bC2020 03 08.03167016 36 31.61 +38 02 58.0          20.7 GVEF003L01
         K20E00P bC2020 03 08.03697916 36 31.26 +38 02 59.1          20.8 GVEF003L01
         K20E00P 2C2020 03 08.54582 16 36 00.82 +38 04 25.1          18.9 RtEF003F65
         K20E00P 2C2020 03 08.54896 16 36 00.59 +38 04 25.8          19.1 RtEF003F65
         K20E00P 2C2020 03 08.55053 16 36 00.54 +38 04 26.6          18.9 RtEF003F65
         K20E00P KC2020 03 14.08869 16 29 38.12 +38 19 00.2                VEF003118
         K20E00P KC2020 03 14.10217 16 29 37.11 +38 19 02.0                VEF003118
         K20E00P KC2020 03 14.11565 16 29 36.04 +38 19 03.9                VEF003118
         K20E00P KC2020 03 15.09416 16 28 18.69 +38 21 23.6          19.9 VqEF003I93
         K20E00P KC2020 03 15.11264 16 28 17.11 +38 21 27.5          19.8 VqEF003I93
         K20E00P KC2020 03 15.13741 16 28 15.10 +38 21 30.2          20.0 VqEF003I93
         K20E00P KC2020 03 16.10018316 26 55.77 +38 23 41.3          20.3 GVEF003J95
         K20E00P KC2020 03 16.10635016 26 55.26 +38 23 41.9          20.1 GVEF003J95
         K20E00P KC2020 03 16.11281016 26 54.73 +38 23 42.6          20.1 GVEF003J95
         K20E00P KC2020 03 16.11896216 26 54.17 +38 23 43.6          19.9 GVEF003J95
    
    Observer details:
    118 Astronomical and Geophysical Observatory, Modra.  Observer S. Gajdos.  
        0.6-m f/5.5 reflector + CCD.
    511 Haute Provence.  Observers L. Maquet, A. Herrmann.  Measurers L. Maquet, V. 
       Maillard, G. Lingam.
    673 Table Mountain Observatory, Wrightwood.  Observer J. Pittichova.  1.0-m 
       f/15 reflector + CCD.
    C95 SATINO Remote Observatory, Haute Provence.  Observer J. Jahn.  0.60-m f/3.2 
       Newtonian reflector + CCD.
    F65 Haleakala-Faulkes Telescope North.  Observer P. Breitenstein.  2.0-m 
       Ritchey-Chretien + CCD.
    G96 Mt. Lemmon Survey.  Observers K. W. Wierzchos, G. J. Leonard.  Measurers E. 
       J. Christensen, G. A. Farneth, D. C. Fuls, A. R. Gibbs, A. D. Grauer, H. 
       Groeller, R. A. Kowalski, S. M. Larson, G. J. Leonard, T. A. Pruyne, D. 
       Rankin, R. L. Seaman, F. C. Shelly, K. W. Wierzchos.  1.5-m reflector + 10K 
       CCD.
    H06 iTelescope Observatory, Mayhill.  Observer H. Sato.  0.43-m f/6.8 
       astrograph + CCD + f/4.5 focal reducer.
    H36 Sandlot Observatory, Scranton.  Observer G. Hug.  0.56-m f/5.1 reflector + 
       CCD.
    I52 Steward Observatory, Mt. Lemmon Station.  Observers R. A. Kowalski, T. A. 
       Pruyne.  Measurers E. J. Christensen, G. A. Farneth, D. C. Fuls, A. R. Gibbs,
        A. D. Grauer, H. Groeller, R. A. Kowalski, S. M. Larson, G. J. Leonard, T. 
       A. Pruyne, D. Rankin, R. L. Seaman, F. C. Shelly, K. W. Wierzchos.  1.0-m 
       reflector + CCD.
    I93 St Pardon de Conques.  Observer F. Losse.  0.40-m f/3.7 reflector + CCD.
    J95 Great Shefford.  Observer P. Birtwhistle.  0.41-m f/6.3 Schmidt-Cassegrain 
       + CCD.
    L01 Visnjan Observatory, Tican.  Observer K. Korlevic.  1.0-m f/2.9 reflector + 
       CCD.
    V06 Catalina Sky Survey-Kuiper.  Observer T. A. Pruyne.  Measurers E. J. 
       Christensen, G. A. Farneth, D. C. Fuls, A. R. Gibbs, A. D. Grauer, H. 
       Groeller, R. A. Kowalski, S. M. Larson, G. J. Leonard, T. A. Pruyne, D. 
       Rankin, R. L. Seaman, F. C. Shelly, K. W. Wierzchos.  1.55-m reflector + CCD.
    
    Orbital elements:
    2020 EP
    Epoch 2020 May 31.0 TT = JDT 2459000.5                  Bell
    M   3.07857              (2000.0)            P               Q
    n   0.03060160     Peri.  126.02628     -0.57907363     -0.54125111
    a  10.1229381      Node    38.89288     -0.51324081     -0.33903087
    e   0.7559367      Incl.   76.17963     +0.63344898     -0.76948379
    P  32.21           H   15.9           G   0.15           U   6
    Residuals in seconds of arc
    200302 G96  0.1-  0.3+    200304 V06  0.2+  0.1+    200306 I52  0.1-  0.2+
    200302 G96  0.7-  0.2+    200304 V06  0.0   0.3+    200306 I52  0.2-  0.1+
    200302 G96  0.2+  0.3+    200304 V06  0.3+  0.2+    200306 G96  0.2-  0.1-
    200302 G96  0.2+  0.1+    200304 673 (1.8-  0.4-)   200307 J95  0.0   0.0
    200302 I52  0.1-  0.4+    200304 673  0.7-  0.1+    200307 J95  0.4+  0.6+
    200302 I52  0.2+  0.6+    200305 I52  0.8-  0.1-    200308 L01  0.7-  0.4+
    200302 I52  0.1-  0.0     200305 I52  0.1+  0.4-    200308 L01  0.3+  0.1+
    200302 I52  0.1+  0.1+    200305 I52  0.1-  0.1-    200308 L01  0.1-  0.3+
    200303 J95  0.2-  0.1+    200305 H06  0.4-  0.9-    200308 F65  0.2+  0.3-
    200303 J95  0.0   0.4-    200305 H06  0.5-  0.8-    200308 F65  0.2-  0.2-
    200303 H36  0.3+  0.0     200305 H06  0.9-  1.0-    200308 F65  0.3+  0.3+
    200303 H36  0.4+  0.1+    200306 511  0.3+  0.5-    200314 118  0.4-  0.1+
    200303 H36  1.1+  0.2-    200306 511  0.3-  0.3-    200314 118  0.3+  0.1-
    200304 C95  0.1+  0.4-    200306 511  0.2-  0.2-    200314 118  0.2+  0.2-
    200304 C95  0.4+  0.4-    200306 511  0.1-  0.0     200315 I93  0.6+  0.5-
    200304 C95  0.6+  0.1-    200306 511  0.1+  0.5-    200315 I93  0.1-  0.7+
    200304 C95  0.0   0.5-    200306 G96  0.3-  0.2-    200315 I93  0.2+  0.2-
    200304 H36  0.3-  0.1-    200306 G96  0.0   0.1-    200316 J95  0.2-  0.3+
    200304 H36  0.9+  0.5+    200306 I52  0.4+  0.1-    200316 J95  0.0   0.0
    200304 V06  0.1+  0.1+    200306 I52  0.0   0.4+    200316 J95  0.2+  0.2-
    200304 H36  0.8-  1.2+    200306 G96  0.1-  0.0     200316 J95  0.2-  0.1-
    
    Ephemeris:
    2020 EP                  a,e,i = 10.12, 0.76, 76                 q = 2.4706
    Date    TT    R. A. (2000) Decl.     Delta      r    Elong.  Phase     V
    2020 02 15    16 47 31.3 +37 13 23   2.3183  2.4711    87.0    23.5    20.8
    ...
    2020 03 01    16 42 16.7 +37 43 32   2.1666  2.4723    95.8    23.5    20.7
    ...
    2020 03 09    16 35 32.8 +38 05 40   2.0847  2.4763   101.1    23.2    20.6
    ...
    2020 03 15    16 28 26.1 +38 21 12   2.0249  2.4808   105.3    22.7    20.5
    2020 03 16    16 27 04.1 +38 23 29   2.0152  2.4817   106.0    22.7    20.5
    2020 03 17    16 25 38.9 +38 25 39   2.0055  2.4826   106.8    22.6    20.5
    ...
    2020 03 23    16 15 59.7 +38 35 07   1.9498  2.4888   111.1    21.9    20.4
    ...
    2020 03 31    16 00 07.5 +38 33 19   1.8833  2.4991   116.9    20.9    20.3
    ...
    2020 04 15    15 22 36.2 +37 14 36   1.7954  2.5244   126.5    18.6    20.1
    
    A. U. Tomatic                (C) Copyright 2020 MPC           M.P.E.C. 2020-F03
    


    Read MPEC 2020-F02 Read MPEC 2020-F04


    MPEC number:

    Enter an MPEC number in one of the following forms:

    • 1997-B01 (the full form)
    • J97B01 (the packed version of the full form)
    • B01 (the abbreviated form)